Wind_Speed
21 22 24 25 24 24 25 27 28 28 28 28 30 32 34 35 37 39 40 42 43 45 46 47 47 48 47 47 48 48 49 49 49 49 49 49 50 50 50 50 49 48 47 46
20 22 24 25 24 24 25 26 27 27 27 27 28 31 32 33 35 37 38 39 41 42 44 45 46 47 47 47 47 47 48 48 48 49 49 49 50 50 50 49 49 48 48 47
20 22 24 25 25 26 27 26 27 28 27 28 27 28 30 31 33 35 36 37 38 40 41 43 44 45 46 47 47 46 46 47 47 47 48 48 49 49 49 49 49 49 49 49
20 22 25 25 26 27 28 28 28 28 28 28 29 29 30 31 31 32 33 35 37 39 40 41 42 43 44 45 46 46 47 47 47 47 47 47 47 47 48 48 48 48 48 49
20 22 24 25 26 27 28 28 29 29 29 30 30 30 31 32 32 32 33 33 35 37 38 40 41 42 42 43 44 44 45 46 46 46 46 46 46 45 46 46 46 47 47 47
21 23 24 24 24 26 27 27 27 28 29 29 30 30 30 32 32 33 34 34 35 36 37 38 40 41 42 43 43 43 44 45 45 46 46 46 46 45 45 45 46 46 45 46
21 22 23 23 24 25 26 25 26 27 29 29 29 29 29 30 32 33 34 34 35 36 36 38 39 40 40 41 42 43 43 43 44 44 44 45 44 45 45 45 45 45 45 44
21 21 21 22 24 25 25 26 26 27 27 28 29 29 29 30 31 33 34 35 35 36 36 37 38 39 39 40 41 42 42 43 43 44 44 44 44 44 44 44 44 44 43 43
22 22 22 23 23 24 26 26 26 27 27 28 28 29 29 29 30 31 32 34 35 35 35 36 37 38 39 39 39 40 41 41 42 43 43 43 44 44 44 43 43 43 43 42
22 22 23 23 23 24 25 26 26 27 28 28 29 29 30 30 31 31 32 33 34 34 35 35 36 36 37 37 38 38 39 40 41 41 42 42 42 42 42 42 42 41 41 40
23 22 22 23 23 24 24 25 26 26 27 27 28 29 30 31 31 32 32 32 33 34 35 35 35 35 35 35 36 37 38 38 39 39 39 39 39 39 39 39 40 40 40 40
22 22 22 23 23 24 24 25 26 26 26 26 27 27 28 30 31 32 32 32 32 33 34 34 34 35 34 34 34 35 35 36 37 37 37 37 37 37 37 38 38 39 39 39
22 22 23 24 24 24 25 25 25 26 26 26 26 26 27 28 29 30 30 30 31 32 32 33 33 33 33 34 34 34 34 35 35 35 35 35 35 35 36 36 37 37 36 37
22 23 23 24 24 25 25 25 25 26 26 26 26 26 26 27 28 28 29 29 30 30 31 32 32 33 33 33 33 32 32 32 33 32 32 32 32 32 32 33 33 33 33 34
22 23 24 24 24 25 25 25 26 26 26 26 26 26 26 26 27 28 29 29 30 30 30 31 32 32 32 32 31 30 30 30 30 30 30 29 29 29 30 30 30 30 31 32
23 23 23 24 24 24 24 24 24 25 25 25 26 26 25 26 26 27 28 28 28 29 29 30 30 30 31 30 30 29 29 28 29 29 28 28 28 28 28 28 28 29 30 30
23 23 24 24 24 24 23 23 23 23 23 23 24 24 24 24 25 25 26 27 27 28 28 28 28 28 28 28 28 28 28 28 28 28 27 27 28 28 27 28 28 28 29 29
24 24 24 24 24 24 23 23 22 22 23 23 23 23 23 24 24 25 25 25 26 26 26 26 26 26 26 26 26 27 27 27 27 27 27 27 27 27 26 27 27 27 28 28
24 24 25 25 24 23 23 23 23 23 23 24 24 24 24 24 23 24 24 24 24 25 25 25 25 25 26 26 27 27 27 27 27 27 27 27 26 26 25 25 26 26 26 26
24 24 25 25 25 25 25 25 25 25 25 25 25 25 25 24 23 23 23 23 23 23 24 24 25 25 25 26 26 26 26 26 27 27 27 27 26 25 25 25 25 25 25 25
24 25 25 26 26 26 25 25 25 25 25 24 24 24 24 24 24 24 23 23 23 23 23 23 24 24 25 25 25 25 25 25 25 25 26 26 26 26 25 25 25 24 24 24
25 25 25 25 25 25 25 25 25 25 24 24 24 23 23 23 23 23 22 22 22 23 23 24 24 25 25 26 25 25 25 25 25 25 25 25 25 25 25 25 24 24 24 24
26 26 25 25 25 25 24 24 24 25 24 24 23 23 23 23 23 23 22 22 22 22 22 23 23 24 24 25 25 26 26 25 25 24 24 24 24 23 24 24 24 24 23 23
26 26 26 26 26 25 25 24 25 25 25 24 24 24 23 23 23 23 23 22 22 22 22 22 23 23 24 24 24 24 24 24 24 23 23 23 23 23 23 23 23 23 22 22
26 26 26 26 25 25 25 25 25 25 25 25 24 24 24 24 23 23 23 23 23 22 22 22 23 23 24 24 24 24 23 23 23 22 22 22 22 22 21 21 21 21 21 21
26 25 25 25 24 24 24 24 24 24 24 24 24 24 23 23 23 22 22 22 22 22 22 22 22 22 22 22 23 23 23 22 22 22 21 21 21 20 20 20 20 19 19 18
25 24 24 23 23 22 22 23 23 23 23 23 23 22 22 22 22 22 22 22 21 21 21 21 20 20 20 21 21 22 22 22 21 21 20 20 19 19 19 19 18 18 17 17
Wind_Direction
239 241 240 240 241 243 246 248 251 253 254 253 252 252 249 247 245 244 244 244 243 243 244 244 246 247 248 249 250 251 252 254 256 257 257 257 258 259 260 262 263 265 265 266
241 242 243 242 242 244 247 248 250 253 254 255 256 252 248 246 246 247 247 246 245 244 244 245 246 247 248 250 251 252 253 254 256 257 257 258 258 259 260 262 263 264 264 266
246 243 244 244 244 245 248 250 252 253 254 255 255 253 250 248 247 248 248 246 246 245 245 245 246 247 248 249 251 252 254 254 255 257 258 258 259 260 261 262 263 264 265 266
252 248 248 248 249 250 251 252 253 254 256 257 257 254 251 250 248 248 247 246 246 246 246 247 248 248 249 250 251 253 253 254 255 257 258 259 260 261 262 262 263 265 266 267
256 254 253 252 253 254 254 254 255 255 254 255 256 256 254 253 251 248 247 247 247 247 248 249 249 250 251 252 253 254 254 255 256 257 257 259 260 261 263 264 265 266 267 267
264 260 259 258 257 257 256 256 256 255 255 256 257 257 255 254 253 251 250 250 250 251 250 251 251 251 253 254 255 255 256 256 256 257 257 258 260 261 263 265 266 267 267 268
268 265 263 262 260 258 257 257 258 257 258 258 259 259 258 257 256 254 253 253 253 253 253 253 253 253 255 255 256 256 256 257 257 258 258 259 261 262 264 265 266 267 267 268
270 268 267 265 263 261 262 261 261 261 260 260 258 258 258 258 258 256 255 255 255 255 255 255 255 255 256 257 258 258 257 258 259 260 261 261 263 264 265 266 267 267 268 268
271 269 268 267 265 264 263 263 262 262 262 260 259 258 258 258 258 257 256 256 256 256 257 257 258 258 258 259 259 259 259 260 261 261 261 262 263 264 264 265 266 266 267 268
272 269 269 268 267 264 263 263 264 264 263 262 261 260 259 259 258 258 258 259 258 258 257 258 259 260 261 261 261 261 262 262 262 263 263 263 263 264 264 264 265 266 266 268
275 272 269 268 268 266 265 264 265 267 265 263 262 260 258 258 258 258 259 259 258 258 258 259 259 260 261 262 262 262 262 262 263 263 263 263 264 264 264 265 264 265 266 267
278 275 272 270 269 268 267 267 267 268 266 264 264 263 262 261 261 261 260 258 258 258 258 259 259 260 261 261 262 262 262 262 263 264 264 264 264 264 265 264 265 265 266 267
280 277 274 272 270 270 269 270 269 268 267 265 264 265 264 263 262 262 261 260 260 260 259 259 259 260 261 261 262 263 263 263 263 264 264 264 265 265 265 265 265 266 267 267
282 281 277 273 272 271 272 272 271 268 266 265 264 265 265 263 262 262 262 261 261 261 261 260 260 260 261 261 261 262 262 262 262 263 263 263 264 265 265 265 265 266 267 267
284 282 279 275 273 273 274 273 272 270 268 265 265 265 265 264 263 262 262 262 262 262 263 262 260 260 260 260 260 260 260 261 261 261 262 262 263 264 265 265 267 269 270 270
285 284 281 278 275 274 273 273 273 272 270 267 265 264 265 265 264 264 263 262 261 263 264 263 262 261 260 259 259 259 259 260 260 260 261 261 262 263 265 266 268 270 271 272
285 284 283 281 279 277 275 274 274 273 271 269 267 265 265 266 266 265 264 264 264 264 264 263 262 260 259 258 258 258 258 258 258 258 258 260 262 264 265 266 267 269 271 273
286 285 285 283 280 278 276 273 272 270 268 268 268 268 268 267 266 266 266 265 265 265 263 262 260 259 258 257 257 257 258 258 258 258 258 259 262 264 265 266 268 270 272 274
285 285 285 283 280 277 275 272 271 270 271 270 269 269 269 269 268 267 266 266 265 263 262 260 259 258 257 259 259 259 258 257 258 259 259 260 261 263 264 266 268 271 273 275
286 284 284 283 281 277 275 273 271 270 271 270 270 270 269 268 267 267 268 267 265 263 261 259 258 257 258 260 260 260 259 259 260 260 260 261 262 263 264 267 268 270 272 273
286 285 286 285 283 280 276 273 271 270 270 271 271 270 269 268 267 267 267 267 266 263 261 260 259 258 258 259 260 260 260 260 260 260 260 260 261 263 264 266 268 270 272 272
286 286 286 286 285 282 277 273 271 270 270 270 270 270 270 269 269 269 268 267 266 264 262 261 261 259 258 259 259 260 261 261 261 261 261 261 261 261 262 264 267 270 272 273
287 285 284 284 284 281 277 274 272 271 270 270 270 270 270 269 270 270 269 268 267 266 265 263 262 260 260 260 261 261 260 261 260 260 260 260 261 262 262 264 266 269 270 271
288 286 283 283 282 281 278 275 273 272 271 270 269 270 270 269 269 270 269 269 268 268 267 265 262 261 261 261 261 261 260 260 259 259 259 260 261 263 263 264 265 266 267 268
289 286 285 283 282 280 277 275 273 272 271 269 268 268 269 269 268 267 268 268 268 268 267 265 263 263 263 261 260 259 258 258 258 258 260 261 263 263 263 263 263 264 266 267
291 289 286 283 281 280 277 275 274 273 271 269 268 268 268 268 267 266 267 267 267 266 266 265 265 263 262 261 259 257 257 257 258 259 261 262 262 262 262 261 262 262 263 265
293 290 287 284 282 280 278 277 275 273 271 269 268 267 267 267 266 266 266 265 265 265 264 264 264 264 263 261 259 257 255 255 256 257 259 260 260 260 260 259 259 260 261 263
Height
5575 5578 5580 5582 5585 5586 5588 5590 5592 5595 5597 5599 5601 5603 5606 5608 5611 5614 5618 5621 5624 5627 5631 5634 5637 5641 5644 5647 5649 5652 5654 5656 5658 5660 5661 5663 5665 5666 5667 5669 5670 5670 5671 5672
5572 5573 5575 5577 5580 5581 5583 5584 5586 5588 5591 5593 5594 5595 5598 5600 5603 5606 5609 5611 5615 5617 5620 5623 5626 5629 5632 5635 5638 5640 5642 5644 5646 5648 5649 5651 5653 5654 5656 5657 5658 5659 5659 5660
5568 5569 5570 5572 5575 5576 5578 5579 5581 5582 5586 5586 5587 5589 5591 5593 5595 5597 5600 5602 5605 5607 5610 5613 5616 5619 5621 5624 5626 5629 5631 5633 5634 5636 5637 5639 5641 5642 5643 5645 5646 5647 5647 5648
5563 5564 5565 5570 5569 5570 5572 5573 5575 5576 5577 5578 5580 5582 5583 5585 5587 5589 5591 5593 5596 5598 5601 5603 5606 5608 5611 5613 5616 5618 5619 5621 5623 5624 5626 5627 5629 5630 5631 5632 5633 5634 5635 5636
5558 5558 5559 5563 5563 5564 5565 5567 5568 5569 5570 5571 5572 5574 5576 5577 5578 5580 5582 5585 5587 5589 5591 5594 5596 5598 5600 5603 5604 5606 5608 5610 5611 5613 5614 5616 5617 5619 5620 5620 5621 5622 5623 5623
5553 5553 5554 5558 5558 5557 5559 5560 5561 5561 5562 5563 5565 5567 5569 5569 5570 5572 5574 5576 5578 5580 5582 5584 5586 5588 5590 5592 5593 5595 5596 5598 5600 5601 5603 5604 5606 5607 5608 5608 5609 5610 5610 5611
5548 5547 5549 5551 5550 5551 5553 5554 5554 5554 5555 5556 5557 5559 5560 5561 5562 5564 5565 5567 5569 5571 5573 5574 5576 5577 5579 5581 5582 5584 5585 5587 5588 5589 5591 5592 5594 5595 5596 5596 5597 5598 5598 5599
5543 5543 5546 5544 5544 5545 5546 5546 5547 5547 5547 5548 5549 5550 5551 5552 5553 5555 5556 5558 5560 5561 5563 5564 5566 5567 5569 5570 5571 5573 5574 5575 5576 5578 5579 5581 5582 5583 5583 5584 5585 5585 5586 5586
5539 5540 5538 5538 5538 5538 5538 5539 5539 5540 5540 5540 5541 5542 5543 5544 5545 5546 5548 5549 5551 5552 5553 5555 5556 5557 5558 5560 5560 5562 5563 5564 5565 5566 5567 5569 5570 5571 5571 5572 5573 5573 5574 5575
5532 5533 5532 5531 5531 5531 5531 5531 5532 5532 5532 5533 5533 5534 5535 5536 5537 5538 5539 5540 5541 5543 5544 5545 5546 5547 5548 5549 5550 5551 5552 5553 5554 5555 5556 5557 5558 5559 5560 5560 5561 5562 5562 5563
5526 5526 5526 5525 5524 5524 5524 5524 5525 5525 5525 5525 5525 5526 5527 5528 5528 5529 5530 5531 5532 5533 5534 5535 5536 5537 5538 5539 5540 5540 5541 5542 5543 5544 5545 5546 5547 5548 5549 5549 5550 5551 5551 5552
5520 5520 5519 5519 5518 5517 5517 5517 5517 5517 5517 5517 5517 5518 5519 5519 5520 5520 5521 5521 5522 5523 5524 5525 5526 5527 5528 5529 5529 5530 5531 5532 5533 5534 5535 5536 5537 5538 5538 5539 5539 5540 5540 5541
5513 5513 5512 5512 5511 5510 5510 5510 5510 5509 5510 5510 5510 5510 5510 5511 5511 5511 5511 5512 5513 5514 5515 5516 5516 5517 5518 5519 5519 5520 5521 5522 5523 5524 5525 5525 5526 5527 5528 5528 5529 5530 5530 5531
5507 5506 5505 5504 5504 5503 5503 5502 5502 5502 5502 5502 5502 5502 5502 5502 5503 5503 5503 5503 5504 5504 5505 5506 5506 5507 5508 5509 5510 5510 5511 5512 5513 5514 5515 5516 5517 5517 5518 5519 5520 5520 5521 5521
5500 5499 5498 5497 5496 5496 5495 5495 5495 5494 5494 5494 5494 5494 5494 5495 5495 5495 5495 5495 5495 5495 5496 5496 5497 5498 5498 5499 5500 5501 5502 5503 5504 5505 5506 5507 5508 5509 5509 5510 5511 5511 5512 5512
5493 5492 5491 5490 5489 5489 5488 5488 5487 5487 5487 5487 5487 5487 5486 5486 5486 5486 5486 5486 5486 5487 5487 5488 5488 5489 5490 5491 5492 5493 5494 5495 5496 5497 5498 5499 5500 5500 5501 5502 5503 5503 5503 5503
5486 5485 5484 5483 5482 5482 5481 5481 5480 5480 5480 5480 5479 5479 5479 5479 5479 5478 5478 5478 5478 5478 5479 5479 5480 5480 5481 5482 5484 5485 5486 5487 5488 5489 5490 5491 5491 5492 5493 5494 5494 5495 5495 5495
5479 5478 5477 5476 5475 5475 5474 5474 5473 5473 5473 5473 5472 5472 5472 5472 5471 5471 5470 5470 5470 5470 5471 5471 5472 5472 5473 5475 5476 5477 5478 5479 5480 5481 5482 5483 5484 5484 5485 5486 5487 5487 5487 5487
5471 5470 5469 5468 5468 5467 5467 5466 5466 5466 5465 5465 5465 5464 5464 5464 5464 5463 5463 5463 5463 5463 5463 5463 5464 5465 5466 5467 5468 5469 5470 5471 5472 5473 5474 5475 5476 5477 5478 5478 5479 5479 5479 5479
5464 5463 5462 5461 5460 5460 5459 5459 5458 5458 5458 5457 5457 5457 5456 5456 5456 5456 5456 5455 5455 5455 5456 5456 5457 5458 5458 5459 5460 5461 5462 5463 5464 5465 5466 5467 5468 5469 5470 5471 5471 5472 5472 5472
5457 5456 5455 5453 5452 5451 5451 5450 5450 5450 5450 5449 5449 5449 5448 5448 5448 5448 5448 5448 5448 5448 5448 5449 5449 5450 5451 5452 5453 5454 5455 5456 5457 5458 5459 5460 5461 5462 5462 5463 5464 5464 5464 5465
5449 5448 5447 5446 5445 5444 5443 5442 5442 5442 5442 5441 5441 5441 5441 5441 5441 5441 5440 5441 5441 5441 5441 5441 5442 5443 5444 5445 5446 5447 5447 5448 5449 5450 5451 5452 5453 5454 5455 5456 5456 5457 5457 5457
5442 5440 5439 5438 5437 5435 5435 5434 5434 5434 5434 5433 5433 5433 5433 5433 5433 5433 5433 5433 5433 5433 5433 5434 5434 5435 5436 5437 5438 5439 5440 5441 5442 5443 5444 5445 5445 5446 5447 5448 5449 5449 5450 5450
5433 5432 5431 5429 5428 5427 5427 5426 5426 5425 5425 5425 5425 5425 5425 5425 5425 5425 5425 5425 5425 5426 5426 5426 5427 5427 5428 5429 5430 5431 5432 5433 5434 5435 5436 5437 5438 5439 5440 5440 5441 5442 5442 5443
5424 5423 5422 5421 5420 5419 5418 5418 5417 5417 5417 5417 5417 5417 5417 5417 5417 5417 5417 5418 5418 5418 5418 5418 5419 5419 5420 5421 5422 5423 5425 5426 5427 5428 5429 5430 5431 5432 5432 5433 5434 5434 5435 5435
5416 5414 5413 5412 5411 5410 5410 5409 5409 5409 5409 5408 5409 5409 5409 5409 5409 5409 5410 5410 5410 5410 5410 5411 5411 5412 5413 5413 5414 5416 5417 5418 5420 5421 5422 5423 5424 5425 5425 5426 5427 5428 5428 5429
5408 5407 5405 5404 5403 5402 5402 5402 5401 5401 5401 5401 5401 5401 5401 5401 5402 5402 5402 5402 5403 5403 5403 5404 5404 5405 5405 5406 5407 5408 5410 5411 5413 5414 5415 5416 5417 5418 5419 5420 5421 5422 5422 5423